| time (UTC) | temp C | wind direction | speed KPH | gust KPH | rain 1hr cm | rain 24hr cm | rain mn cm | humidity % | barometer mb |
| 20260504050557 | -17 | 0.0 | 0.0 | 0.00 | 0.00 | 0.00 | 1017.5 | ||
| 20260504045552 | 13 | 216 | 0.0 | 0.0 | 0.00 | 0.00 | 0.00 | 81 | 1017.4 |
| 20260504045052 | 13 | 216 | 0.0 | 0.0 | 0.00 | 0.00 | 0.00 | 81 | 1017.5 |
| 20260504044552 | 13 | 214 | 0.0 | 0.0 | 0.00 | 0.00 | 0.00 | 81 | 1017.5 |
| 20260504044052 | 13 | 214 | 0.0 | 0.0 | 0.00 | 0.00 | 0.00 | 82 | 1017.5 |
| 20260504043552 | 13 | 214 | 0.0 | 0.0 | 0.00 | 0.00 | 0.00 | 81 | 1017.6 |
| 20260504043346 | 13 | 214 | 0.0 | 0.0 | 0.00 | 0.00 | 0.00 | 81 | 1017.4 |
| 20260504042552 | 13 | 214 | 0.0 | 0.0 | 0.00 | 0.00 | 0.00 | 80 | 1017.5 |
| 20260504042050 | 14 | 214 | 0.0 | 0.0 | 0.00 | 0.00 | 0.00 | 81 | 1017.5 |
| 20260504041551 | 14 | 214 | 0.0 | 0.0 | 0.00 | 0.00 | 0.00 | 80 | 1017.5 |
| 20260504041050 | 13 | 214 | 0.0 | 0.0 | 0.00 | 0.00 | 0.00 | 80 | 1017.5 |
| 20260504040551 | 13 | 214 | 0.0 | 0.0 | 0.00 | 0.00 | 0.00 | 81 | 1017.6 |
| 20260504040050 | 13 | 214 | 0.0 | 0.0 | 0.00 | 0.00 | 0.00 | 82 | 1017.6 |
| 20260504035551 | 13 | 214 | 0.0 | 0.0 | 0.00 | 0.00 | 0.00 | 81 | 1017.5 |
| 20260504035051 | 13 | 214 | 0.0 | 0.0 | 0.00 | 0.00 | 0.00 | 82 | 1017.5 |
| 20260504034837 | 13 | 214 | 0.0 | 0.0 | 0.00 | 0.00 | 0.00 | 81 | 1017.5 |
| 20260504034050 | 13 | 214 | 0.0 | 0.0 | 0.00 | 0.00 | 0.00 | 81 | 1017.4 |
| 20260504033549 | 13 | 214 | 0.0 | 0.0 | 0.00 | 0.00 | 0.00 | 80 | 1017.5 |
| 20260504033049 | 14 | 154 | 0.0 | 0.0 | 0.00 | 0.00 | 0.00 | 80 | 1017.5 |
| 20260504032549 | 14 | 154 | 0.0 | 0.0 | 0.00 | 0.00 | 0.00 | 80 | 1017.5 |
| 20260504032049 | 14 | 154 | 0.0 | 0.0 | 0.00 | 0.00 | 0.00 | 81 | 1017.4 |
| 20260504031550 | 14 | 154 | 0.0 | 0.0 | 0.00 | 0.00 | 0.00 | 80 | 1017.4 |
| 20260504031049 | 14 | 154 | 0.0 | 0.0 | 0.00 | 0.00 | 0.00 | 80 | 1017.5 |
| 20260504030551 | 14 | 154 | 0.0 | 0.0 | 0.00 | 0.00 | 0.00 | 81 | 1017.4 |
| 20260504030050 | 14 | 154 | 0.0 | 0.0 | 0.00 | 0.00 | 0.00 | 79 | 1017.3 |
| 20260504025549 | 14 | 154 | 0.0 | 0.0 | 0.00 | 0.00 | 0.00 | 79 | 1017.4 |
| 20260504025048 | 15 | 154 | 0.0 | 0.0 | 0.00 | 0.00 | 0.00 | 79 | 1017.4 |
| 20260504024925 | 15 | 149 | 0.0 | 0.0 | 0.00 | 0.00 | 0.00 | 78 | 1017.3 |
| 20260504024921 | 15 | 149 | 0.0 | 0.0 | 0.00 | 0.00 | 0.00 | 79 | 1017.3 |
| 20260504023835 | 15 | 149 | 0.0 | 0.0 | 0.00 | 0.00 | 0.00 | 77 | 1017.3 |
| 20260504023050 | 15 | 149 | 0.0 | 0.0 | 0.00 | 0.00 | 0.00 | 77 | 1017.3 |
| 20260504022548 | 15 | 149 | 0.0 | 0.0 | 0.00 | 0.00 | 0.00 | 76 | 1017.4 |
| 20260504022050 | 15 | 149 | 0.0 | 1.6 | 0.00 | 0.00 | 0.00 | 75 | 1017.3 |
| 20260504021548 | 15 | 144 | 0.0 | 1.6 | 0.00 | 0.00 | 0.00 | 72 | 1017.2 |
| 20260504021047 | 15 | 144 | 0.0 | 0.0 | 0.00 | 0.00 | 0.00 | 70 | 1017.1 |
| 20260504020548 | 15 | 144 | 0.0 | 0.0 | 0.00 | 0.00 | 0.00 | 70 | 1017.1 |
| 20260504020050 | 15 | 144 | 0.0 | 0.0 | 0.00 | 0.00 | 0.00 | 74 | 1016.9 |
| 20260504015547 | 15 | 144 | 0.0 | 0.0 | 0.00 | 0.00 | 0.00 | 72 | 1016.8 |
| 20260504015047 | 16 | 144 | 0.0 | 0.0 | 0.00 | 0.00 | 0.00 | 72 | 1016.8 |
| 20260504014549 | 16 | 144 | 0.0 | 0.0 | 0.00 | 0.00 | 0.00 | 72 | 1016.9 |
| 20260504014049 | 16 | 144 | 0.0 | 0.0 | 0.00 | 0.00 | 0.00 | 72 | 1016.8 |
| 20260504013547 | 16 | 144 | 0.0 | 0.0 | 0.00 | 0.00 | 0.00 | 72 | 1016.8 |
| 20260504013046 | 16 | 144 | 0.0 | 0.0 | 0.00 | 0.00 | 0.00 | 70 | 1016.7 |
| 20260504012548 | 16 | 144 | 0.0 | 0.0 | 0.00 | 0.00 | 0.00 | 70 | 1016.7 |
| 20260504012047 | 16 | 144 | 0.0 | 0.0 | 0.00 | 0.00 | 0.00 | 69 | 1016.6 |
| 20260504011547 | 17 | 144 | 0.0 | 0.0 | 0.00 | 0.00 | 0.00 | 68 | 1016.6 |
| 20260504011046 | 17 | 144 | 0.0 | 0.0 | 0.00 | 0.00 | 0.00 | 67 | 1016.5 |
| 20260504010838 | 17 | 144 | 0.0 | 0.0 | 0.00 | 0.00 | 0.00 | 66 | 1016.4 |
| 20260504010336 | 17 | 144 | 0.0 | 0.0 | 0.00 | 0.00 | 0.00 | 64 | 1016.4 |
| 20260504005547 | 18 | 144 | 0.0 | 0.0 | 0.00 | 0.00 | 0.00 | 64 | 1016.4 |
| 20260504005048 | 18 | 144 | 0.0 | 0.0 | 0.00 | 0.00 | 0.00 | 62 | 1016.4 |
| 20260504004546 | 18 | 144 | 0.0 | 0.0 | 0.00 | 0.00 | 0.00 | 60 | 1016.3 |
| 20260504004046 | 18 | 144 | 0.0 | 0.0 | 0.00 | 0.00 | 0.00 | 58 | 1016.3 |
| 20260504003546 | 19 | 144 | 0.0 | 0.0 | 0.00 | 0.00 | 0.00 | 57 | 1016.1 |
| 20260504003041 | 19 | 144 | 0.0 | 0.0 | 0.00 | 0.00 | 0.00 | 57 | 1016.1 |
| 20260504002530 | 20 | 144 | 0.0 | 0.0 | 0.00 | 0.00 | 0.00 | 57 | 1016.2 |
| 20260504002033 | 20 | 144 | 0.0 | 0.0 | 0.00 | 0.00 | 0.00 | 55 | 1016.1 |
| 20260504001531 | 20 | 144 | 0.0 | 0.0 | 0.00 | 0.00 | 0.00 | 55 | 1016.1 |
| 20260504001032 | 20 | 144 | 0.0 | 0.0 | 0.00 | 0.00 | 0.00 | 56 | 1016.0 |
| 20260504000532 | 20 | 144 | 0.0 | 0.0 | 0.00 | 0.00 | 0.00 | 53 | 1016.0 |
| 20260504000033 | 21 | 144 | 0.0 | 0.0 | 0.00 | 0.00 | 0.00 | 52 | 1016.0 |
| 20260503235532 | 21 | 144 | 0.0 | 0.0 | 0.00 | 0.00 | 0.00 | 53 | 1016.0 |
| 20260503235324 | 21 | 144 | 0.0 | 0.0 | 0.00 | 0.00 | 0.00 | 51 | 1016.0 |
| 20260503234532 | 21 | 144 | 0.0 | 0.0 | 0.00 | 0.00 | 0.00 | 51 | 1016.0 |
| 20260503234508 | 21 | 144 | 0.0 | 0.0 | 0.00 | 0.00 | 0.00 | 51 | 1016.1 |
| 20260503234501 | 21 | 144 | 0.0 | 0.0 | 0.00 | 0.00 | 0.00 | 51 | 1016.1 |
| 20260503234452 | 21 | 144 | 0.0 | 0.0 | 0.00 | 0.00 | 0.00 | 52 | 1016.0 |
| 20260503232532 | 21 | 144 | 0.0 | 0.0 | 0.00 | 0.00 | 0.00 | 50 | 1016.1 |
| 20260503232031 | 22 | 144 | 0.0 | 1.6 | 0.00 | 0.00 | 0.00 | 50 | 1016.1 |
| 20260503231533 | 22 | 144 | 0.0 | 1.6 | 0.00 | 0.00 | 0.00 | 47 | 1016.1 |
| 20260503231031 | 22 | 144 | 0.0 | 1.6 | 0.00 | 0.00 | 0.00 | 45 | 1016.1 |
| 20260503230533 | 22 | 144 | 0.0 | 1.6 | 0.00 | 0.00 | 0.00 | 45 | 1016.2 |
| 20260503230031 | 22 | 144 | 0.0 | 1.6 | 0.00 | 0.00 | 0.00 | 45 | 1016.1 |
| 20260503225826 | 22 | 144 | 0.0 | 1.6 | 0.00 | 0.00 | 0.00 | 44 | 1016.2 |
| 20260503225032 | 22 | 144 | 0.0 | 1.6 | 0.00 | 0.00 | 0.00 | 44 | 1016.2 |
| 20260503224824 | 22 | 145 | 0.0 | 0.0 | 0.00 | 0.00 | 0.00 | 44 | 1016.1 |
| 20260503224320 | 22 | 145 | 0.0 | 1.6 | 0.00 | 0.00 | 0.00 | 45 | 1016.2 |
| 20260503223531 | 22 | 145 | 0.0 | 1.6 | 0.00 | 0.00 | 0.00 | 44 | 1016.2 |
| 20260503223032 | 22 | 137 | 0.0 | 1.6 | 0.00 | 0.00 | 0.00 | 42 | 1016.2 |
| 20260503222825 | 22 | 76 | 0.0 | 1.6 | 0.00 | 0.00 | 0.00 | 43 | 1016.2 |
| 20260503222027 | 22 | 168 | 0.0 | 3.2 | 0.00 | 0.00 | 0.00 | 42 | 1016.2 |
| 20260503221525 | 22 | 355 | 0.0 | 3.2 | 0.00 | 0.00 | 0.00 | 46 | 1016.2 |
| 20260503221018 | 22 | 11 | 0.0 | 1.6 | 0.00 | 0.00 | 0.00 | 43 | 1016.3 |
| 20260503220516 | 23 | 14 | 0.0 | 1.6 | 0.00 | 0.00 | 0.00 | 43 | 1016.3 |
| 20260503220018 | 23 | 96 | 0.0 | 1.6 | 0.00 | 0.00 | 0.00 | 44 | 1016.3 |
| 20260503215513 | 23 | 96 | 0.0 | 3.2 | 0.00 | 0.00 | 0.00 | 44 | 1016.4 |
| 20260503215008 | 23 | 133 | 1.6 | 3.2 | 0.00 | 0.00 | 0.00 | 39 | 1016.3 |
| 20260503214504 | 23 | 39 | 0.0 | 3.2 | 0.00 | 0.00 | 0.00 | 39 | 1016.4 |
| 20260503214255 | 23 | 343 | 0.0 | 3.2 | 0.00 | 0.00 | 0.00 | 39 | 1016.5 |
| 20260503213505 | 23 | 320 | 0.0 | 1.6 | 0.00 | 0.00 | 0.00 | 42 | 1016.5 |
| 20260503213004 | 24 | 320 | 0.0 | 3.2 | 0.00 | 0.00 | 0.00 | 38 | 1016.5 |
| 20260503212503 | 24 | 320 | 0.0 | 4.8 | 0.00 | 0.00 | 0.00 | 39 | 1016.6 |
| 20260503212004 | 25 | 275 | 0.0 | 6.4 | 0.00 | 0.00 | 0.00 | 36 | 1016.6 |
| 20260503211503 | 25 | 233 | 1.6 | 6.4 | 0.00 | 0.00 | 0.00 | 36 | 1016.6 |
| 20260503211005 | 25 | 173 | 0.0 | 1.6 | 0.00 | 0.00 | 0.00 | 36 | 1016.7 |
| 20260503210502 | 25 | 340 | 0.0 | 1.6 | 0.00 | 0.00 | 0.00 | 36 | 1016.8 |
| 20260503210002 | 25 | 334 | 0.0 | 8.0 | 0.00 | 0.00 | 0.00 | 37 | 1016.8 |
| 20260503205504 | 25 | 0 | 0.0 | 8.0 | 0.00 | 0.00 | 0.00 | 38 | 1016.8 |
| 20260503205003 | 26 | 137 | 1.6 | 3.2 | 0.00 | 0.00 | 0.00 | 34 | 1016.9 |
| 20260503204504 | 25 | 203 | 0.0 | 4.8 | 0.00 | 0.00 | 0.00 | 35 | 1017.0 |
| 20260503204004 | 26 | 42 | 0.0 | 4.8 | 0.00 | 0.00 | 0.00 | 34 | 1017.0 |
| 20260503203503 | 25 | 269 | 0.0 | 3.2 | 0.00 | 0.00 | 0.00 | 35 | 1017.1 |
| 20260503203004 | 25 | 244 | 0.0 | 3.2 | 0.00 | 0.00 | 0.00 | 35 | 1017.3 |
| 20260503202504 | 25 | 85 | 0.0 | 3.2 | 0.00 | 0.00 | 0.00 | 34 | 1017.3 |
| 20260503202002 | 25 | 155 | 0.0 | 4.8 | 0.00 | 0.00 | 0.00 | 35 | 1017.4 |
| 20260503201504 | 25 | 42 | 0.0 | 4.8 | 0.00 | 0.00 | 0.00 | 35 | 1017.5 |
| 20260503201004 | 25 | 214 | 1.6 | 4.8 | 0.00 | 0.00 | 0.00 | 33 | 1017.6 |
| 20260503200503 | 25 | 258 | 0.0 | 4.8 | 0.00 | 0.00 | 0.00 | 36 | 1017.7 |
| 20260503200004 | 25 | 324 | 0.0 | 6.4 | 0.00 | 0.00 | 0.00 | 35 | 1017.8 |
| 20260503195504 | 25 | 268 | 1.6 | 6.4 | 0.00 | 0.00 | 0.00 | 40 | 1017.8 |
| 20260503195002 | 25 | 35 | 1.6 | 4.8 | 0.00 | 0.00 | 0.00 | 38 | 1018.0 |
| 20260503194756 | 25 | 338 | 0.0 | 4.8 | 0.00 | 0.00 | 0.00 | 37 | 1018.1 |
| 20260503194004 | 25 | 16 | 1.6 | 4.8 | 0.00 | 0.00 | 0.00 | 36 | 1018.1 |
| 20260503193502 | 25 | 235 | 0.0 | 3.2 | 0.00 | 0.00 | 0.00 | 38 | 1018.1 |
| 20260503193305 | 24 | 324 | 1.6 | 4.8 | 0.00 | 0.00 | 0.00 | 36 | 1018.2 |
| 20260503192503 | 24 | 20 | 1.6 | 4.8 | 0.00 | 0.00 | 0.00 | 38 | 1018.1 |
| 20260503192003 | 23 | 34 | 1.6 | 4.8 | 0.00 | 0.00 | 0.00 | 38 | 1018.3 |
| 20260503191503 | 23 | 35 | 3.2 | 4.8 | 0.00 | 0.00 | 0.00 | 35 | 1018.4 |
| 20260503191002 | 24 | 6 | 1.6 | 4.8 | 0.00 | 0.00 | 0.00 | 37 | 1018.4 |
| 20260503190604 | 24 | 285 | 1.6 | 6.4 | 0.00 | 0.00 | 0.00 | 38 | 1018.6 |
| 20260503190540 | 24 | 34 | 1.6 | 6.4 | 0.00 | 0.00 | 0.00 | 37 | 1018.5 |
| 20260503185503 | 24 | 72 | 1.6 | 4.8 | 0.00 | 0.00 | 0.00 | 37 | 1018.6 |
| 20260503185003 | 24 | 310 | 0.0 | 3.2 | 0.00 | 0.00 | 0.00 | 34 | 1018.8 |
| 20260503184502 | 24 | 145 | 0.0 | 4.8 | 0.00 | 0.00 | 0.00 | 36 | 1018.8 |
| 20260503184002 | 24 | 32 | 0.0 | 6.4 | 0.00 | 0.00 | 0.00 | 36 | 1018.9 |
| 20260503183504 | 24 | 140 | 1.6 | 6.4 | 0.00 | 0.00 | 0.00 | 35 | 1018.9 |
| 20260503183259 | 24 | 286 | 0.0 | 6.4 | 0.00 | 0.00 | 0.00 | 34 | 1019.0 |
| 20260503182505 | 23 | 145 | 1.6 | 6.4 | 0.00 | 0.00 | 0.00 | 34 | 1019.1 |
| 20260503182006 | 24 | 329 | 3.2 | 6.4 | 0.00 | 0.00 | 0.00 | 37 | 1019.3 |
| 20260503181504 | 23 | 295 | 0.0 | 6.4 | 0.00 | 0.00 | 0.00 | 37 | 1019.4 |
| 20260503181003 | 23 | 71 | 1.6 | 6.4 | 0.00 | 0.00 | 0.00 | 36 | 1019.3 |
| 20260503180504 | 23 | 10 | 1.6 | 4.8 | 0.00 | 0.00 | 0.00 | 37 | 1019.5 |
| 20260503180003 | 23 | 320 | 1.6 | 6.4 | 0.00 | 0.00 | 0.00 | 36 | 1019.6 |
| 20260503175503 | 23 | 324 | 1.6 | 6.4 | 0.00 | 0.00 | 0.00 | 37 | 1019.7 |
| 20260503175305 | 24 | 289 | 0.0 | 4.8 | 0.00 | 0.00 | 0.00 | 35 | 1019.7 |
| 20260503174756 | 23 | 140 | 0.0 | 4.8 | 0.00 | 0.00 | 0.00 | 37 | 1019.8 |
| 20260503174002 | 23 | 10 | 1.6 | 4.8 | 0.00 | 0.00 | 0.00 | 37 | 1019.8 |
| 20260503173503 | 23 | 230 | 1.6 | 3.2 | 0.00 | 0.00 | 0.00 | 38 | 1019.8 |
| 20260503173003 | 24 | 195 | 0.0 | 3.2 | 0.00 | 0.00 | 0.00 | 35 | 1019.8 |
| 20260503172607 | 23 | 17 | 1.6 | 6.4 | 0.00 | 0.00 | 0.00 | 38 | 1020.0 |
| 20260503172543 | 23 | 217 | 1.6 | 3.2 | 0.00 | 0.00 | 0.00 | 35 | 1019.9 |
| 20260503171503 | 23 | 354 | 1.6 | 6.4 | 0.00 | 0.00 | 0.00 | 36 | 1020.2 |
| 20260503171303 | 23 | 336 | 1.6 | 3.2 | 0.00 | 0.00 | 0.00 | 35 | 1020.1 |
| 20260503170806 | 23 | 324 | 0.0 | 3.2 | 0.00 | 0.00 | 0.00 | 37 | 1020.1 |
| 20260503151005 | 20 | 353 | 1.6 | 1.6 | 0.00 | 0.00 | 0.00 | 46 | 1020.9 |
| 20260503150756 | 20 | 338 | 0.0 | 1.6 | 0.00 | 0.00 | 0.00 | 48 | 1020.9 |
| 20260503150251 | 20 | 285 | 0.0 | 3.2 | 0.00 | 0.00 | 0.00 | 51 | 1020.9 |
| 20260503131253 | 12 | 32 | 0.0 | 0.0 | 0.00 | 0.00 | 0.00 | 84 | 1020.0 |
| 20260503130505 | 12 | 32 | 0.0 | 0.0 | 0.00 | 0.00 | 0.00 | 84 | 1020.0 |
| 20260503110743 | 7 | 221 | 0.0 | 0.0 | 0.00 | 0.03 | 0.00 | 91 | 1019.1 |
| 20260503081425 | 8 | 302 | 0.0 | 1.6 | 0.00 | 0.30 | 0.00 | 87 | 1018.1 |
| 20260503080924 | 8 | 302 | 0.0 | 0.0 | 0.00 | 0.33 | 0.00 | 86 | 1018.0 |
| 20260503080425 | 8 | 302 | 0.0 | 0.0 | 0.00 | 0.36 | 0.00 | 86 | 1018.0 |
| 20260503080210 | 8 | 302 | 0.0 | 0.0 | 0.00 | 0.36 | 0.00 | 86 | 1018.0 |
| 20260503072924 | 9 | 0 | 0.0 | 0.0 | 0.00 | 0.69 | 0.00 | 84 | 1017.6 |
| 20260503072717 | 10 | 0 | 0.0 | 0.0 | 0.00 | 0.81 | 0.00 | 83 | 1017.5 |
| 20260503072011 | 10 | 0 | 0.0 | 0.0 | 0.00 | 0.94 | 0.00 | 82 | 1017.6 |
| 20260503071954 | 10 | 0 | 0.0 | 0.0 | 0.00 | 0.89 | 0.00 | 83 | 1017.5 |
| 20260503070922 | 10 | 0 | 0.0 | 0.0 | 0.00 | 1.02 | 0.00 | 81 | 1017.5 |
| 20260503070422 | 10 | 0 | 0.0 | 0.0 | 0.00 | 1.07 | 0.00 | 82 | 1017.5 |
| 20260503054920 | 12 | 0 | 0.0 | 0.0 | 0.00 | 1.78 | 0.00 | 73 | 1017.4 |
| 20260503054711 | 12 | 0 | 0.0 | 0.0 | 0.00 | 1.80 | 0.00 | 73 | 1017.4 |
| 20260503053920 | 12 | 0 | 0.0 | 0.0 | 0.00 | 1.80 | 0.00 | 80 | 1017.3 |
| 20260503053420 | 12 | 0 | 0.0 | 0.0 | 0.00 | 1.85 | 0.00 | 79 | 1017.2 |
| 20260503052920 | 12 | 0 | 0.0 | 0.0 | 0.00 | 1.93 | 0.00 | 78 | 1017.3 |
| 20260503052416 | 12 | 0 | 0.0 | 0.0 | 0.00 | 2.01 | 0.00 | 78 | 1017.2 |
| 20260503052214 | 13 | 0 | 0.0 | 0.0 | 0.00 | 2.06 | 0.00 | 78 | 1017.3 |